When you browse on this site, cookies collect data to enhance your experience and personalize the content and advertising you see.
Visit our Privacy Policy to learn more. By continuing to use the site, you agree to this use of cookies and data.
  • In Spain
  • List of Countries
  • For 7 days
  • Water Temperature
  • Satellite Maps
  • Weather Map
  • Weather Widgets
  • user-avatar
    Login

    Hourly Weather Al Hudaydah

    Today, 25 June, Tuesday

    Time Temperature Precipitation Wind Pressure Humidity
    00:00 +37°C° 0 mm 2 mps 750 mmHg 44%
    01:00 +37°C° 0 mm 2 mps 749 mmHg 47%
    02:00 +36°C° 0 mm 2 mps 749 mmHg 51%
    03:00 +36°C° 0 mm 3 mps 748 mmHg 53%
    04:00 +35°C° 0 mm 2 mps 749 mmHg 57%
    05:00 +35°C° 0 mm 2 mps 749 mmHg 61%
    06:00 +33°C° 0 mm 1 mps 750 mmHg 65%
    07:00 +35°C° 0 mm 2 mps 750 mmHg 60%
    08:00 +36°C° 0 mm 3 mps 751 mmHg 55%
    09:00 +39°C° 0 mm 5 mps 751 mmHg 50%
    10:00 +40°C° 0 mm 5 mps 751 mmHg 46%
    11:00 +41°C° 0 mm 5 mps 751 mmHg 42%
    12:00 +42°C° 0 mm 4 mps 750 mmHg 38%
    13:00 +42°C° 0 mm 4 mps 750 mmHg 35%
    14:00 +42°C° 0 mm 5 mps 749 mmHg 33%
    15:00 +42°C° 0 mm 5 mps 749 mmHg 32%
    16:00 +42°C° 0 mm 4 mps 749 mmHg 32%
    17:00 +41°C° 0 mm 4 mps 749 mmHg 32%
    18:00 +40°C° 0 mm 3 mps 750 mmHg 32%
    19:00 +39°C° 0 mm 3 mps 750 mmHg 33%
    20:00 +39°C° 0 mm 2 mps 750 mmHg 35%
    21:00 +38°C° 0 mm 2 mps 751 mmHg 36%
    22:00 +38°C° 0 mm 2 mps 751 mmHg 37%
    23:00 +37°C° 0 mm 1 mps 751 mmHg 37%

    Tomorrow, 26 June, Wednesday

    Time Temperature Precipitation Wind Pressure Humidity
    00:00 +37°C° 0 mm 1 mps 751 mmHg 38%
    01:00 +37°C° 0 mm 1 mps 750 mmHg 40%
    02:00 +37°C° 0 mm 2 mps 750 mmHg 42%
    03:00 +36°C° 0 mm 2 mps 749 mmHg 45%
    04:00 +36°C° 0 mm 2 mps 749 mmHg 45%
    05:00 +35°C° 0 mm 1 mps 750 mmHg 46%
    06:00 +33°C° 0 mm 0 mps 750 mmHg 46%
    07:00 +36°C° 0 mm 1 mps 751 mmHg 44%
    08:00 +38°C° 0 mm 2 mps 751 mmHg 41%
    09:00 +39°C° 0 mm 3 mps 751 mmHg 39%
    10:00 +41°C° 0 mm 4 mps 751 mmHg 37%
    11:00 +42°C° 0 mm 5 mps 750 mmHg 36%
    12:00 +43°C° 0 mm 5 mps 750 mmHg 34%
    13:00 +43°C° 0 mm 5 mps 750 mmHg 32%
    14:00 +45°C° 0 mm 5 mps 749 mmHg 30%
    15:00 +45°C° 0 mm 5 mps 748 mmHg 28%
    16:00 +43°C° 0 mm 5 mps 748 mmHg 30%
    17:00 +42°C° 0 mm 5 mps 748 mmHg 31%
    18:00 +42°C° 0 mm 4 mps 748 mmHg 33%
    19:00 +41°C° 0 mm 4 mps 749 mmHg 35%
    20:00 +40°C° 0 mm 4 mps 749 mmHg 38%
    21:00 +38°C° 0 mm 3 mps 750 mmHg 41%
    22:00 +38°C° 0 mm 3 mps 749 mmHg 42%
    23:00 +37°C° 0 mm 3 mps 749 mmHg 43%

    Day after tomorrow, 27 June, Thursday

    Time Temperature Precipitation Wind Pressure Humidity
    00:00 +37°C° 0 mm 3 mps 749 mmHg 44%
    01:00 +37°C° 0 mm 3 mps 749 mmHg 46%
    02:00 +36°C° 0 mm 3 mps 748 mmHg 48%
    03:00 +36°C° 0 mm 3 mps 748 mmHg 50%
    04:00 +35°C° 0 mm 3 mps 748 mmHg 53%
    05:00 +35°C° 0 mm 3 mps 748 mmHg 57%
    06:00 +35°C° 0 mm 3 mps 748 mmHg 60%
    07:00 +36°C° 0 mm 3 mps 748 mmHg 55%
    08:00 +37°C° 0 mm 3 mps 748 mmHg 51%
    09:00 +38°C° 0 mm 4 mps 748 mmHg 46%
    10:00 +40°C° 0 mm 4 mps 748 mmHg 42%
    11:00 +42°C° 0 mm 4 mps 748 mmHg 37%
    12:00 +43°C° 0 mm 5 mps 748 mmHg 32%
    13:00 +43°C° 0 mm 5 mps 747 mmHg 34%
    14:00 +42°C° 0 mm 6 mps 747 mmHg 36%
    15:00 +43°C° 0 mm 7 mps 746 mmHg 37%
    16:00 +41°C° 0 mm 6 mps 746 mmHg 39%
    17:00 +40°C° 0 mm 6 mps 746 mmHg 41%
    18:00 +40°C° 0 mm 6 mps 746 mmHg 43%
    19:00 +39°C° 0 mm 5 mps 746 mmHg 46%
    20:00 +37°C° 0 mm 5 mps 747 mmHg 49%
    21:00 +37°C° 0 mm 4 mps 747 mmHg 52%
    22:00 +37°C° 0 mm 3 mps 747 mmHg 54%
    23:00 +36°C° 0 mm 3 mps 747 mmHg 56%

    28 June, Friday

    Time Temperature Precipitation Wind Pressure Humidity
    00:00 +36°C° 0 mm 2 mps 746 mmHg 58%
    01:00 +36°C° 0 mm 2 mps 746 mmHg 59%
    02:00 +35°C° 0 mm 2 mps 745 mmHg 60%
    03:00 +34°C° 0 mm 1 mps 745 mmHg 61%
    04:00 +34°C° 0 mm 2 mps 745 mmHg 66%
    05:00 +34°C° 0 mm 2 mps 746 mmHg 71%
    06:00 +32°C° 0 mm 2 mps 746 mmHg 75%
    07:00 +34°C° 0 mm 3 mps 746 mmHg 69%
    08:00 +36°C° 0 mm 3 mps 747 mmHg 63%
    09:00 +37°C° 0 mm 3 mps 747 mmHg 57%
    10:00 +38°C° 0 mm 4 mps 747 mmHg 52%
    11:00 +41°C° 0 mm 5 mps 747 mmHg 47%
    12:00 +42°C° 0 mm 5 mps 746 mmHg 41%
    13:00 +42°C° 0 mm 5 mps 746 mmHg 40%
    14:00 +42°C° 0 mm 5 mps 745 mmHg 39%
    15:00 +42°C° 0 mm 5 mps 745 mmHg 37%
    16:00 +42°C° 0 mm 5 mps 745 mmHg 36%
    17:00 +41°C° 0 mm 6 mps 745 mmHg 36%
    18:00 +41°C° 0 mm 6 mps 745 mmHg 35%
    19:00 +40°C° 0 mm 5 mps 746 mmHg 37%
    20:00 +40°C° 0 mm 4 mps 746 mmHg 39%
    21:00 +38°C° 0 mm 2 mps 746 mmHg 41%
    22:00 +37°C° 0 mm 2 mps 746 mmHg 45%
    23:00 +37°C° 0 mm 3 mps 746 mmHg 49%

    29 June, Saturday

    Time Temperature Precipitation Wind Pressure Humidity
    00:00 +36°C° 0 mm 3 mps 746 mmHg 53%
    01:00 +35°C° 0 mm 3 mps 746 mmHg 58%
    02:00 +35°C° 0 mm 3 mps 746 mmHg 63%
    03:00 +34°C° 0 mm 3 mps 746 mmHg 68%
    04:00 +34°C° 0 mm 4 mps 746 mmHg 69%
    05:00 +34°C° 0 mm 4 mps 747 mmHg 71%
    06:00 +34°C° 0 mm 5 mps 747 mmHg 72%
    07:00 +35°C° 0 mm 5 mps 748 mmHg 64%
    08:00 +38°C° 0 mm 6 mps 748 mmHg 55%
    09:00 +39°C° 0 mm 6 mps 749 mmHg 47%
    10:00 +40°C° 0 mm 6 mps 749 mmHg 44%
    11:00 +41°C° 0 mm 5 mps 748 mmHg 40%
    12:00 +42°C° 0 mm 5 mps 748 mmHg 36%
    13:00 +42°C° 0 mm 5 mps 748 mmHg 35%
    14:00 +42°C° 0 mm 5 mps 747 mmHg 34%
    15:00 +42°C° 0 mm 5 mps 747 mmHg 33%
    16:00 +41°C° 0 mm 5 mps 747 mmHg 38%
    17:00 +40°C° 0 mm 5 mps 746 mmHg 43%
    18:00 +39°C° 0 mm 5 mps 746 mmHg 48%
    19:00 +37°C° 0 mm 4 mps 747 mmHg 52%
    20:00 +37°C° 0 mm 4 mps 747 mmHg 56%
    21:00 +36°C° 0 mm 4 mps 748 mmHg 59%
    22:00 +36°C° 0 mm 4 mps 748 mmHg 59%
    23:00 +36°C° 0 mm 4 mps 748 mmHg 59%

    30 June, Sunday

    Time Temperature Precipitation Wind Pressure Humidity
    00:00 +36°C° 0 mm 3 mps 748 mmHg 59%
    01:00 +36°C° 0 mm 3 mps 747 mmHg 57%
    02:00 +36°C° 0 mm 3 mps 747 mmHg 56%
    03:00 +36°C° 0 mm 2 mps 747 mmHg 54%
    04:00 +36°C° 0 mm 2 mps 747 mmHg 53%
    05:00 +36°C° 0 mm 2 mps 748 mmHg 53%
    06:00 +36°C° 0 mm 2 mps 748 mmHg 52%
    07:00 +37°C° 0 mm 3 mps 748 mmHg 51%
    08:00 +38°C° 0 mm 3 mps 749 mmHg 50%
    09:00 +40°C° 0 mm 4 mps 749 mmHg 49%
    10:00 +41°C° 0 mm 4 mps 749 mmHg 45%
    11:00 +42°C° 0 mm 4 mps 749 mmHg 41%
    12:00 +43°C° 0 mm 4 mps 748 mmHg 38%
    13:00 +44°C° 0 mm 6 mps 748 mmHg 35%
    14:00 +45°C° 0 mm 8 mps 748 mmHg 33%
    15:00 +47°C° 0 mm 9 mps 747 mmHg 30%
    16:00 +44°C° 0 mm 9 mps 747 mmHg 33%
    17:00 +43°C° 0 mm 9 mps 747 mmHg 36%
    18:00 +42°C° 0 mm 9 mps 747 mmHg 38%
    19:00 +40°C° 0 mm 8 mps 748 mmHg 40%
    20:00 +40°C° 0 mm 7 mps 748 mmHg 42%
    21:00 +39°C° 0 mm 6 mps 749 mmHg 44%
    22:00 +39°C° 0 mm 5 mps 749 mmHg 44%
    23:00 +39°C° 0 mm 5 mps 749 mmHg 44%
    Show more